| time (UTC) | temp C | wind direction | speed KPH | gust KPH | rain 1hr cm | rain 24hr cm | rain mn cm | humidity % | barometer mb |
| 20260505035523 | 17 | 210 | 0.0 | 1.6 | 0.00 | 0.00 | 0.00 | 78 | 1011.9 |
| 20260505035022 | 17 | 204 | 0.0 | 4.8 | 0.00 | 0.00 | 0.00 | 77 | 1011.9 |
| 20260505034542 | 17 | 205 | 0.0 | 4.8 | 0.00 | 0.00 | 0.00 | 76 | 1011.9 |
| 20260505034024 | 17 | 202 | 3.2 | 4.8 | 0.00 | 0.00 | 0.00 | 76 | 1012.0 |
| 20260505033526 | 17 | 189 | 1.6 | 8.0 | 0.00 | 0.00 | 0.00 | 76 | 1012.0 |
| 20260505033035 | 17 | 190 | 3.2 | 8.0 | 0.00 | 0.00 | 0.00 | 76 | 1011.8 |
| 20260505032529 | 17 | 173 | 1.6 | 4.8 | 0.00 | 0.00 | 0.00 | 76 | 1011.9 |
| 20260505032029 | 17 | 162 | 1.6 | 4.8 | 0.00 | 0.00 | 0.00 | 76 | 1011.8 |
| 20260505031547 | 17 | 174 | 1.6 | 4.8 | 0.00 | 0.00 | 0.00 | 76 | 1011.9 |
| 20260505031023 | 17 | 163 | 1.6 | 4.8 | 0.00 | 0.00 | 0.00 | 76 | 1011.9 |
| 20260505030526 | 17 | 170 | 1.6 | 3.2 | 0.00 | 0.00 | 0.00 | 76 | 1012.0 |
| 20260505030041 | 17 | 169 | 1.6 | 3.2 | 0.00 | 0.00 | 0.00 | 76 | 1012.0 |
| 20260505025528 | 17 | 173 | 0.0 | 3.2 | 0.00 | 0.00 | 0.00 | 76 | 1012.0 |
| 20260505025026 | 17 | 172 | 0.0 | 3.2 | 0.00 | 0.00 | 0.00 | 75 | 1011.9 |
| 20260505024541 | 17 | 158 | 0.0 | 1.6 | 0.00 | 0.00 | 0.00 | 75 | 1011.7 |
| 20260505024023 | 17 | 157 | 0.0 | 1.6 | 0.00 | 0.00 | 0.00 | 75 | 1011.8 |
| 20260505023524 | 17 | 193 | 0.0 | 1.6 | 0.00 | 0.00 | 0.00 | 74 | 1011.8 |
| 20260505023041 | 17 | 198 | 0.0 | 1.6 | 0.00 | 0.00 | 0.00 | 74 | 1011.9 |
| 20260505022523 | 18 | 0 | 0.0 | 1.6 | 0.00 | 0.00 | 0.00 | 73 | 1011.6 |
| 20260505022029 | 18 | 165 | 0.0 | 1.6 | 0.00 | 0.00 | 0.00 | 73 | 1011.6 |
| 20260505021538 | 18 | 156 | 0.0 | 1.6 | 0.00 | 0.00 | 0.00 | 73 | 1011.3 |
| 20260505021025 | 18 | 155 | 0.0 | 1.6 | 0.00 | 0.00 | 0.00 | 73 | 1011.4 |
| 20260505020525 | 18 | 173 | 0.0 | 1.6 | 0.00 | 0.00 | 0.00 | 72 | 1011.6 |
| 20260505020040 | 18 | 158 | 0.0 | 3.2 | 0.00 | 0.00 | 0.00 | 71 | 1011.5 |
| 20260505015524 | 18 | 153 | 0.0 | 3.2 | 0.00 | 0.00 | 0.00 | 70 | 1011.2 |
| 20260505015024 | 18 | 167 | 0.0 | 1.6 | 0.00 | 0.00 | 0.00 | 70 | 1011.2 |
| 20260505014542 | 19 | 183 | 0.0 | 1.6 | 0.00 | 0.00 | 0.00 | 68 | 1011.3 |
| 20260505014023 | 19 | 192 | 0.0 | 1.6 | 0.00 | 0.00 | 0.00 | 67 | 1011.5 |
| 20260505013523 | 19 | 190 | 0.0 | 1.6 | 0.00 | 0.00 | 0.00 | 66 | 1011.5 |
| 20260505013037 | 20 | 203 | 0.0 | 1.6 | 0.00 | 0.00 | 0.00 | 66 | 1011.5 |
| 20260505012523 | 20 | 0 | 0.0 | 6.4 | 0.00 | 0.00 | 0.00 | 64 | 1011.5 |
| 20260505012023 | 20 | 203 | 1.6 | 6.4 | 0.00 | 0.00 | 0.00 | 63 | 1011.5 |
| 20260505011544 | 20 | 212 | 3.2 | 6.4 | 0.00 | 0.00 | 0.00 | 62 | 1011.2 |
| 20260505011022 | 20 | 218 | 1.6 | 6.4 | 0.00 | 0.00 | 0.00 | 63 | 1011.4 |
| 20260505010523 | 20 | 217 | 0.0 | 4.8 | 0.00 | 0.00 | 0.00 | 62 | 1011.4 |
| 20260505010053 | 20 | 213 | 1.6 | 8.0 | 0.00 | 0.00 | 0.00 | 61 | 1011.4 |
| 20260505005523 | 21 | 0 | 1.6 | 8.0 | 0.00 | 0.00 | 0.00 | 61 | 1011.3 |
| 20260505005024 | 21 | 211 | 1.6 | 8.0 | 0.00 | 0.00 | 0.00 | 60 | 1011.3 |
| 20260505004538 | 21 | 223 | 1.6 | 11.3 | 0.00 | 0.00 | 0.00 | 59 | 1011.2 |
| 20260505004023 | 22 | 219 | 4.8 | 12.9 | 0.00 | 0.00 | 0.00 | 56 | 1011.3 |
| 20260505003524 | 22 | 230 | 6.4 | 16.1 | 0.00 | 0.00 | 0.00 | 54 | 1011.2 |
| 20260505003037 | 22 | 206 | 6.4 | 17.7 | 0.00 | 0.00 | 0.00 | 54 | 1011.1 |
| 20260505002524 | 23 | 207 | 11.3 | 19.3 | 0.00 | 0.00 | 0.00 | 51 | 1011.0 |
| 20260505002023 | 23 | 207 | 12.9 | 19.3 | 0.00 | 0.00 | 0.00 | 51 | 1011.2 |
| 20260505001539 | 23 | 223 | 12.9 | 17.7 | 0.00 | 0.00 | 0.00 | 51 | 1011.1 |
| 20260505001023 | 23 | 225 | 9.7 | 19.3 | 0.00 | 0.00 | 0.00 | 51 | 1011.3 |
| 20260505000523 | 23 | 225 | 11.3 | 19.3 | 0.00 | 0.00 | 0.00 | 51 | 1011.1 |
| 20260505000047 | 23 | 216 | 11.3 | 19.3 | 0.00 | 0.00 | 0.00 | 51 | 1011.1 |
| 20260504235524 | 23 | 214 | 11.3 | 24.1 | 0.00 | 0.00 | 0.00 | 50 | 1011.2 |
| 20260504235024 | 24 | 228 | 12.9 | 24.1 | 0.00 | 0.00 | 0.00 | 48 | 1011.3 |
| 20260504234541 | 24 | 225 | 12.9 | 24.1 | 0.00 | 0.00 | 0.00 | 48 | 1011.4 |
| 20260504234023 | 24 | 194 | 9.7 | 19.3 | 0.00 | 0.00 | 0.00 | 50 | 1011.4 |
| 20260504233524 | 25 | 224 | 12.9 | 24.1 | 0.00 | 0.00 | 0.00 | 49 | 1011.6 |
| 20260504233039 | 25 | 216 | 12.9 | 24.1 | 0.00 | 0.00 | 0.00 | 48 | 1011.6 |
| 20260504232524 | 25 | 204 | 11.3 | 19.3 | 0.00 | 0.00 | 0.00 | 50 | 1011.6 |
| 20260504232025 | 25 | 219 | 12.9 | 22.5 | 0.00 | 0.00 | 0.00 | 47 | 1011.7 |
| 20260504231538 | 25 | 200 | 16.1 | 22.5 | 0.00 | 0.00 | 0.00 | 47 | 1011.7 |
| 20260504231024 | 25 | 205 | 16.1 | 22.5 | 0.00 | 0.00 | 0.00 | 46 | 1011.8 |
| 20260504230523 | 25 | 249 | 14.5 | 22.5 | 0.00 | 0.00 | 0.00 | 46 | 1011.9 |
| 20260504230035 | 25 | 207 | 14.5 | 22.5 | 0.00 | 0.00 | 0.00 | 47 | 1012.0 |
| 20260504225528 | 25 | 223 | 12.9 | 29.0 | 0.00 | 0.00 | 0.00 | 46 | 1011.9 |
| 20260504225023 | 25 | 200 | 12.9 | 29.0 | 0.00 | 0.00 | 0.00 | 47 | 1012.0 |
| 20260504224538 | 25 | 195 | 12.9 | 24.1 | 0.00 | 0.00 | 0.00 | 47 | 1011.8 |
| 20260504224023 | 25 | 212 | 12.9 | 24.1 | 0.00 | 0.00 | 0.00 | 48 | 1012.0 |
| 20260504223523 | 25 | 216 | 14.5 | 24.1 | 0.00 | 0.00 | 0.00 | 48 | 1012.0 |
| 20260504223037 | 25 | 214 | 14.5 | 22.5 | 0.00 | 0.00 | 0.00 | 47 | 1012.1 |
| 20260504222522 | 25 | 179 | 16.1 | 24.1 | 0.00 | 0.00 | 0.00 | 48 | 1012.1 |
| 20260504222023 | 25 | 199 | 14.5 | 24.1 | 0.00 | 0.00 | 0.00 | 48 | 1012.2 |
| 20260504221542 | 25 | 215 | 12.9 | 20.9 | 0.00 | 0.00 | 0.00 | 45 | 1012.2 |
| 20260504221023 | 25 | 196 | 12.9 | 25.7 | 0.00 | 0.00 | 0.00 | 47 | 1012.2 |
| 20260504220523 | 26 | 210 | 19.3 | 25.7 | 0.00 | 0.00 | 0.00 | 45 | 1012.3 |
| 20260504220048 | 26 | 202 | 12.9 | 32.2 | 0.00 | 0.00 | 0.00 | 46 | 1012.2 |
| 20260504215523 | 26 | 217 | 17.7 | 32.2 | 0.00 | 0.00 | 0.00 | 43 | 1012.4 |
| 20260504215026 | 26 | 185 | 14.5 | 27.4 | 0.00 | 0.00 | 0.00 | 47 | 1012.5 |
| 20260504214538 | 26 | 223 | 16.1 | 27.4 | 0.00 | 0.00 | 0.00 | 46 | 1012.4 |
| 20260504214023 | 26 | 211 | 19.3 | 24.1 | 0.00 | 0.00 | 0.00 | 44 | 1012.6 |
| 20260504213524 | 26 | 217 | 16.1 | 49.9 | 0.00 | 0.00 | 0.00 | 44 | 1012.4 |
| 20260504213050 | 26 | 218 | 14.5 | 49.9 | 0.00 | 0.00 | 0.00 | 44 | 1012.7 |
| 20260504212524 | 26 | 134 | 12.9 | 29.0 | 0.00 | 0.00 | 0.00 | 46 | 1012.5 |
| 20260504212024 | 26 | 141 | 16.1 | 29.0 | 0.00 | 0.00 | 0.00 | 45 | 1012.7 |
| 20260504211541 | 26 | 205 | 16.1 | 32.2 | 0.00 | 0.00 | 0.00 | 45 | 1012.7 |
| 20260504211023 | 26 | 208 | 16.1 | 32.2 | 0.00 | 0.00 | 0.00 | 47 | 1012.8 |
| 20260504210529 | 26 | 210 | 19.3 | 32.2 | 0.00 | 0.00 | 0.00 | 45 | 1012.8 |
| 20260504210041 | 26 | 225 | 16.1 | 27.4 | 0.00 | 0.00 | 0.00 | 46 | 1012.8 |
| 20260504205526 | 26 | 191 | 16.1 | 27.4 | 0.00 | 0.00 | 0.00 | 48 | 1012.8 |
| 20260504205022 | 25 | 195 | 19.3 | 27.4 | 0.00 | 0.00 | 0.00 | 45 | 1013.0 |
| 20260504204542 | 26 | 183 | 17.7 | 25.7 | 0.00 | 0.00 | 0.00 | 44 | 1013.0 |
| 20260504204026 | 26 | 193 | 14.5 | 25.7 | 0.00 | 0.00 | 0.00 | 44 | 1013.0 |
| 20260504203526 | 26 | 186 | 16.1 | 24.1 | 0.00 | 0.00 | 0.00 | 46 | 1013.1 |
| 20260504203040 | 26 | 265 | 12.9 | 27.4 | 0.00 | 0.00 | 0.00 | 44 | 1013.2 |
| 20260504202526 | 26 | 200 | 16.1 | 29.0 | 0.00 | 0.00 | 0.00 | 47 | 1013.3 |
| 20260504202026 | 26 | 218 | 19.3 | 29.0 | 0.00 | 0.00 | 0.00 | 46 | 1013.4 |
| 20260504201538 | 25 | 188 | 9.7 | 25.7 | 0.00 | 0.00 | 0.00 | 45 | 1013.4 |
| 20260504201023 | 26 | 204 | 14.5 | 20.9 | 0.00 | 0.00 | 0.00 | 47 | 1013.7 |
| 20260504200526 | 26 | 241 | 11.3 | 24.1 | 0.00 | 0.00 | 0.00 | 47 | 1013.7 |
| 20260504200035 | 26 | 238 | 14.5 | 24.1 | 0.00 | 0.00 | 0.00 | 45 | 1013.8 |
| 20260504195523 | 26 | 195 | 16.1 | 25.7 | 0.00 | 0.00 | 0.00 | 45 | 1013.9 |
| 20260504195024 | 25 | 173 | 16.1 | 27.4 | 0.00 | 0.00 | 0.00 | 46 | 1014.1 |
| 20260504194535 | 25 | 221 | 12.9 | 27.4 | 0.00 | 0.00 | 0.00 | 45 | 1014.1 |
| 20260504194026 | 25 | 217 | 14.5 | 27.4 | 0.00 | 0.00 | 0.00 | 46 | 1014.1 |
| 20260504193523 | 25 | 192 | 12.9 | 25.7 | 0.00 | 0.00 | 0.00 | 47 | 1014.1 |
| 20260504193053 | 25 | 186 | 14.5 | 25.7 | 0.00 | 0.00 | 0.00 | 47 | 1014.3 |
| 20260504192523 | 26 | 235 | 14.5 | 25.7 | 0.00 | 0.00 | 0.00 | 46 | 1014.4 |
| 20260504192023 | 25 | 205 | 16.1 | 25.7 | 0.00 | 0.00 | 0.00 | 46 | 1014.5 |
| 20260504191541 | 25 | 206 | 8.0 | 24.1 | 0.00 | 0.00 | 0.00 | 44 | 1014.5 |
| 20260504191023 | 25 | 210 | 12.9 | 27.4 | 0.00 | 0.00 | 0.00 | 49 | 1014.5 |
| 20260504190526 | 25 | 229 | 17.7 | 27.4 | 0.00 | 0.00 | 0.00 | 46 | 1014.5 |
| 20260504190042 | 26 | 190 | 14.5 | 27.4 | 0.00 | 0.00 | 0.00 | 45 | 1014.5 |
| 20260504185523 | 25 | 222 | 9.7 | 24.1 | 0.00 | 0.00 | 0.00 | 46 | 1014.7 |
| 20260504185026 | 25 | 228 | 14.5 | 24.1 | 0.00 | 0.00 | 0.00 | 46 | 1014.7 |
| 20260504184542 | 25 | 224 | 14.5 | 22.5 | 0.00 | 0.00 | 0.00 | 47 | 1014.5 |
| 20260504184024 | 25 | 232 | 9.7 | 22.5 | 0.00 | 0.00 | 0.00 | 48 | 1014.7 |
| 20260504183524 | 25 | 203 | 16.1 | 22.5 | 0.00 | 0.00 | 0.00 | 45 | 1014.7 |
| 20260504183049 | 25 | 230 | 16.1 | 24.1 | 0.00 | 0.00 | 0.00 | 46 | 1014.8 |
| 20260504182523 | 25 | 250 | 12.9 | 24.1 | 0.00 | 0.00 | 0.00 | 47 | 1014.8 |
| 20260504182024 | 25 | 199 | 14.5 | 24.1 | 0.00 | 0.00 | 0.00 | 45 | 1014.9 |
| 20260504181539 | 25 | 250 | 12.9 | 24.1 | 0.00 | 0.00 | 0.00 | 47 | 1014.8 |
| 20260504181023 | 26 | 221 | 14.5 | 20.9 | 0.00 | 0.00 | 0.00 | 47 | 1015.0 |
| 20260504180526 | 25 | 236 | 9.7 | 22.5 | 0.00 | 0.00 | 0.00 | 46 | 1015.0 |
| 20260504180058 | 25 | 231 | 14.5 | 22.5 | 0.00 | 0.00 | 0.00 | 43 | 1015.0 |
| 20260504175524 | 25 | 230 | 12.9 | 29.0 | 0.00 | 0.00 | 0.00 | 44 | 1015.0 |
| 20260504175027 | 25 | 235 | 12.9 | 29.0 | 0.00 | 0.00 | 0.00 | 44 | 1015.2 |
| 20260504174541 | 25 | 238 | 14.5 | 27.4 | 0.00 | 0.00 | 0.00 | 44 | 1015.2 |
| 20260504174027 | 25 | 208 | 17.7 | 27.4 | 0.00 | 0.00 | 0.00 | 45 | 1015.3 |
| 20260504173526 | 24 | 229 | 11.3 | 22.5 | 0.00 | 0.00 | 0.00 | 52 | 1015.2 |
| 20260504173039 | 24 | 223 | 16.1 | 25.7 | 0.00 | 0.00 | 0.00 | 47 | 1015.3 |
| 20260504172523 | 25 | 256 | 16.1 | 27.4 | 0.00 | 0.00 | 0.00 | 47 | 1015.4 |
| 20260504172025 | 25 | 225 | 17.7 | 27.4 | 0.00 | 0.00 | 0.00 | 48 | 1015.3 |
| 20260504171541 | 25 | 210 | 16.1 | 30.6 | 0.00 | 0.00 | 0.00 | 49 | 1015.4 |
| 20260504171024 | 25 | 240 | 12.9 | 30.6 | 0.00 | 0.00 | 0.00 | 50 | 1015.4 |
| 20260504170526 | 25 | 238 | 16.1 | 30.6 | 0.00 | 0.00 | 0.00 | 49 | 1015.5 |
| 20260504151023 | 22 | 259 | 12.9 | 19.3 | 0.00 | 0.00 | 0.00 | 57 | 1016.5 |
| 20260504150523 | 22 | 219 | 12.9 | 19.3 | 0.00 | 0.00 | 0.00 | 58 | 1016.5 |
| 20260504141023 | 20 | 237 | 9.7 | 17.7 | 0.00 | 0.00 | 0.00 | 66 | 1016.5 |
| 20260504140523 | 20 | 244 | 9.7 | 17.7 | 0.00 | 0.00 | 0.00 | 66 | 1016.6 |
| 20260504130524 | 18 | 199 | 8.0 | 14.5 | 0.00 | 0.00 | 0.00 | 72 | 1016.3 |
| 20260504110523 | 13 | 199 | 3.2 | 6.4 | 0.00 | 0.00 | 0.00 | 87 | 1015.5 |
| 20260504100523 | 13 | 167 | 3.2 | 6.4 | 0.00 | 0.00 | 0.00 | 87 | 1015.4 |
| 20260504081538 | 13 | 165 | 1.6 | 4.8 | 0.00 | 0.00 | 0.00 | 86 | 1016.0 |
| 20260504081025 | 14 | 173 | 0.0 | 3.2 | 0.00 | 0.00 | 0.00 | 86 | 1015.9 |
| 20260504080523 | 14 | 162 | 1.6 | 3.2 | 0.00 | 0.00 | 0.00 | 86 | 1015.9 |
| 20260504050524 | 14 | 0 | 0.0 | 0.0 | 0.00 | 0.00 | 0.00 | 85 | 1017.2 |
| 20260504045524 | 15 | 0 | 0.0 | 0.0 | 0.00 | 0.00 | 0.00 | 84 | 1017.2 |
| 20260504045026 | 15 | 0 | 0.0 | 0.0 | 0.00 | 0.00 | 0.00 | 84 | 1017.2 |
| 20260504044538 | 15 | 0 | 0.0 | 0.0 | 0.00 | 0.00 | 0.00 | 83 | 1017.2 |
| 20260504044023 | 15 | 0 | 0.0 | 0.0 | 0.00 | 0.00 | 0.00 | 83 | 1017.3 |
| 20260504043524 | 15 | 0 | 0.0 | 0.0 | 0.00 | 0.00 | 0.00 | 82 | 1017.3 |
| 20260504043051 | 15 | 0 | 0.0 | 0.0 | 0.00 | 0.00 | 0.00 | 79 | 1017.3 |
| 20260504042524 | 15 | 0 | 0.0 | 1.6 | 0.00 | 0.00 | 0.00 | 78 | 1017.3 |
| 20260504042028 | 15 | 0 | 0.0 | 1.6 | 0.00 | 0.00 | 0.00 | 79 | 1017.3 |
| 20260504041536 | 15 | 0 | 0.0 | 0.0 | 0.00 | 0.00 | 0.00 | 81 | 1017.3 |
| 20260504041023 | 15 | 0 | 0.0 | 0.0 | 0.00 | 0.00 | 0.00 | 81 | 1017.3 |
| 20260504040524 | 15 | 0 | 0.0 | 0.0 | 0.00 | 0.00 | 0.00 | 80 | 1017.4 |
| 20260504040039 | 16 | 0 | 0.0 | 0.0 | 0.00 | 0.00 | 0.00 | 78 | 1017.3 |